Weather reports worldwide

Advertisment
Nevers, France (7260): temperature & dewpoint: 08.07.2020 11:00:00 - 14.07.2020 11:00:00 (CEST)Nevers, France (7260): temperature 5cm: 08.07.2020 11:00:00 - 14.07.2020 11:00:00 (CEST)Nevers, France (7260): temperature -20cm & temperature -100cm: 08.07.2020 11:00:00 - 14.07.2020 11:00:00 (CEST)Nevers, France (7260): wind speed & gusts: 08.07.2020 11:00:00 - 14.07.2020 11:00:00 (CEST)Nevers, France (7260): wind direction: 08.07.2020 11:00:00 - 14.07.2020 11:00:00 (CEST)Nevers, France (7260): reduced air pressure: 08.07.2020 11:00:00 - 14.07.2020 11:00:00 (CEST)Nevers, France (7260): visibility: 08.07.2020 11:00:00 - 14.07.2020 11:00:00 (CEST)Nevers, France (7260): sunshine duration: 08.07.2020 11:00:00 - 14.07.2020 11:00:00 (CEST)Nevers, France (7260): precipitation: 08.07.2020 11:00:00 - 14.07.2020 11:00:00 (CEST)
Date & Time tt [°C] td [°C] tt 5cm [°C] tt -20cm [°C] tt -100cm [°C] ff [km/h] ff [kn] fx [km/h] fx [kn] dd ppp [hPa] vv [km] sd [min] rr [mm]
14.07.2020 11:00:00 21,1 10,0 23,1 19,8 17,6 4 2 12 6 W 1017,8 20 41 0,0
14.07.2020 10:00:00 19,2 9,9 20,4 19,9 17,6 8 4 11 6 NW 1018,0 20 31 0,0
14.07.2020 09:00:00 18,1 9,4 21,3 20,0 17,6 5 3 9 5 NNW 1018,0 17 52 0,0
14.07.2020 08:00:00 15,5 10,7 11,4 20,1 17,6 2 1 4 2 N 1018,4 15 60 0,0
14.07.2020 07:00:00 10,4 9,0 5,5 20,2 17,6 0 0 2 1 N 1018,8 13 29 0,0
14.07.2020 06:00:00 9,0 7,4 5,2 20,3 17,6 0 0 2 1 N 1018,9 14 0 0,0
14.07.2020 05:00:00 9,1 7,4 5,9 20,5 17,6 0 0 2 1 N 1018,9 20 0 0,0
14.07.2020 04:00:00 9,5 7,4 6,4 20,5 17,6 0 0 5 3 N 1019,0 20 0 0,0
14.07.2020 03:00:00 10,7 7,9 7,2 20,6 17,6 0 0 4 2 N 1019,0 20 0 0,0
14.07.2020 02:00:00 11,7 8,2 8,2 20,6 17,6 0 0 4 2 N 1019,3 20 0 0,0
14.07.2020 01:00:00 13,6 8,2 8,9 20,7 17,6 0 0 4 2 N 1019,3 20 0 0,0
14.07.2020 00:00:00 15,0 8,9 10,9 20,7 17,6 0 0 5 3 N 1019,4 20 0 0,0
13.07.2020 23:00:00 16,8 8,2 12,2 20,6 17,6 0 0 11 6 N 1019,3 20 0 0,0
13.07.2020 22:00:00 18,7 8,9 14,5 20,6 17,6 0 0 10 5 N 1019,2 19 0 0,0
13.07.2020 21:00:00 22,0 7,8 18,3 20,5 17,6 9 5 24 13 NW 1018,8 20 21 0,0
13.07.2020 20:00:00 26,3 6,8 26,6 20,4 17,6 13 7 31 17 NW 1018,4 20 60 0,0
13.07.2020 19:00:00 27,0 6,9 29,0 20,2 17,6 16 8 31 17 NNW 1018,4 20 60 0,0
13.07.2020 18:00:00 27,4 6,7 31,1 20,1 17,5 19 10 41 22 NW 1018,7 20 60 0,0
13.07.2020 17:00:00 27,6 6,9 32,7 20,0 17,6 15 8 28 15 NNW 1019,2 20 60 0,0
13.07.2020 16:00:00 27,6 6,4 33,9 19,8 17,6 13 7 32 18 N 1019,6 20 60 0,0
13.07.2020 15:00:00 27,6 5,8 33,7 19,7 17,6 17 9 35 19 N 1019,9 20 60 0,0
13.07.2020 14:00:00 27,1 7,0 33,7 19,7 17,5 14 7 27 15 N 1020,4 20 60 0,0
13.07.2020 13:00:00 25,7 5,8 31,8 19,6 17,6 12 6 32 17 NNE 1021,0 20 60 0,0
13.07.2020 12:00:00 25,3 6,5 30,7 19,7 17,6 18 10 33 18 NNE 1021,4 20 60 0,0
13.07.2020 11:00:00 23,8 9,4 27,0 19,7 17,6 13 7 21 11 NW 1021,5 20 60 0,0
13.07.2020 10:00:00 20,4 9,9 22,6 19,8 17,6 7 4 16 8 NW 1022,1 20 60 0,0
13.07.2020 09:00:00 17,6 9,2 18,8 19,9 17,5 11 6 14 8 NW 1022,4 20 60 0,0
13.07.2020 08:00:00 15,0 9,1 9,7 20,0 17,5 7 4 9 5 NW 1022,4 20 60 0,0
13.07.2020 07:00:00 9,9 7,3 4,4 20,1 17,6 3 2 6 3 NW 1022,5 20 13 0,0
13.07.2020 06:00:00 9,2 6,3 4,8 20,2 17,6 0 0 0 0 N 1022,1 20 0 0,0
13.07.2020 05:00:00 9,6 6,5 5,0 20,3 17,6 0 0 0 0 N 1021,9 20 0 0,0
13.07.2020 04:00:00 10,3 6,6 5,9 20,4 17,6 0 0 2 1 N 1022,0 20 0 0,0
13.07.2020 03:00:00 11,0 7,1 6,8 20,5 17,6 0 0 3 2 N 1022,2 20 0 0,0
13.07.2020 02:00:00 13,0 7,4 8,0 20,5 17,6 0 0 11 6 N 1022,1 20 0 0,0
13.07.2020 01:00:00 15,4 7,2 10,7 20,6 17,6 10 5 14 8 NW 1022,1 20 0 0,0
13.07.2020 00:00:00 18,3 7,1 12,5 20,6 17,5 6 3 20 11 NW 1021,7 20 0 0,0
12.07.2020 23:00:00 20,3 7,0 14,2 20,6 17,6 10 5 16 9 N 1021,5 20 0 0,0
12.07.2020 22:00:00 21,7 7,1 18,3 20,5 17,5 10 5 20 11 N 1020,8 20 18 0,0
12.07.2020 21:00:00 24,4 6,6 22,9 20,4 17,5 14 8 23 12 N 1020,3 20 60 0,0
12.07.2020 20:00:00 26,4 6,9 27,5 20,3 17,5 17 9 28 15 N 1020,1 20 60 0,0
12.07.2020 19:00:00 27,0 5,9 30,4 20,2 17,5 19 10 29 16 N 1019,9 20 60 0,0
12.07.2020 18:00:00 27,6 6,4 32,3 20,0 17,5 18 10 29 16 N 1020,5 20 60 0,0
12.07.2020 17:00:00 27,1 5,9 33,3 19,9 17,5 13 7 25 13 N 1021,0 20 60 0,0
12.07.2020 16:00:00 26,8 6,2 32,9 19,8 17,5 14 8 29 16 NNE 1021,8 20 60 0,0
12.07.2020 15:00:00 26,2 6,2 32,5 19,7 17,5 13 7 35 19 N 1022,3 20 60 0,0
12.07.2020 14:00:00 25,4 6,6 31,1 19,7 17,5 17 9 36 19 NE 1022,8 20 60 0,0
12.07.2020 13:00:00 24,5 6,7 30,6 19,7 17,5 19 11 31 17 NNE 1022,9 20 60 0,0
12.07.2020 12:00:00 23,6 6,8 28,1 19,6 17,5 18 10 36 19 NNE 1023,3 20 60 0,0
12.07.2020 11:00:00 22,4 6,6 27,9 19,7 17,5 19 10 32 18 NNE 1023,6 20 60 0,0
12.07.2020 10:00:00 20,1 7,8 24,8 19,8 17,5 12 6 19 10 N 1024,1 20 60 0,0
12.07.2020 09:00:00 17,5 8,1 20,8 19,9 17,5 10 5 18 10 N 1024,2 20 60 0,0
12.07.2020 08:00:00 15,3 7,3 11,9 20,0 17,5 7 4 15 8 N 1023,9 20 60 0,0
12.07.2020 07:00:00 12,3 6,3 5,0 20,2 17,5 3 2 7 4 WNW 1023,9 20 35 0,0
12.07.2020 06:00:00 11,0 5,7 3,9 20,3 17,6 4 2 15 8 WNW 1023,8 20 0 0,0
12.07.2020 05:00:00 9,5 4,9 4,3 20,4 17,5 3 2 6 3 WNW 1023,9 20 0 0,0
12.07.2020 04:00:00 10,3 5,9 5,4 20,5 17,5 3 2 8 4 W 1024,0 20 0 0,0
12.07.2020 03:00:00 12,1 5,7 7,0 20,6 17,5 2 1 18 10 NNW 1023,8 20 0 0,0
12.07.2020 02:00:00 14,4 6,2 7,8 20,7 17,5 9 5 18 10 NNE 1023,8 20 0 0,0
12.07.2020 01:00:00 13,2 6,3 7,2 20,8 17,5 8 4 14 7 N 1024,3 20 0 0,0
12.07.2020 00:00:00 14,0 6,4 7,6 20,8 17,5 4 2 10 6 N 1024,4 20 0 0,0
11.07.2020 23:00:00 16,2 6,6 10,9 20,8 17,5 7 4 11 6 N 1024,3 20 0 0,0
11.07.2020 22:00:00 18,1 6,6 13,2 20,8 17,5 7 4 13 7 N 1023,6 20 12 0,0
11.07.2020 21:00:00 21,2 6,7 19,5 20,7 17,5 8 5 27 14 N 1023,0 20 41 0,0
11.07.2020 20:00:00 23,1 5,9 24,1 20,7 17,5 14 8 27 14 N 1022,5 20 58 0,0
11.07.2020 19:00:00 23,9 6,6 27,3 20,5 17,5 18 10 33 18 N 1022,6 20 60 0,0
11.07.2020 18:00:00 24,4 6,6 29,0 20,4 17,5 17 9 33 18 NNW 1022,5 20 60 0,0
11.07.2020 17:00:00 24,2 6,5 29,8 20,3 17,5 17 9 33 18 N 1022,6 20 60 0,0
11.07.2020 16:00:00 24,3 7,4 30,4 20,2 17,5 16 9 32 17 N 1023,0 20 60 0,0
11.07.2020 15:00:00 23,9 7,5 28,0 20,2 17,5 12 7 34 19 N 1023,2 20 57 0,0
11.07.2020 14:00:00 21,7 7,9 23,3 20,1 17,5 15 8 27 14 NNE 1023,6 20 41 0,0
11.07.2020 13:00:00 22,2 8,7 25,8 20,1 17,5 10 5 23 12 N 1023,7 20 50 0,0
11.07.2020 12:00:00 21,0 9,6 22,9 20,1 17,5 10 5 24 13 N 1023,8 20 54 0,0
11.07.2020 11:00:00 19,7 10,9 25,4 20,2 17,5 10 6 24 13 NW 1023,8 20 58 0,0
11.07.2020 10:00:00 18,4 11,2 23,7 20,3 17,5 9 5 14 8 NNE 1023,8 20 60 0,0
11.07.2020 09:00:00 16,4 9,8 18,7 20,4 17,5 9 5 14 8 N 1023,7 20 60 0,0
11.07.2020 08:00:00 13,9 9,3 12,7 20,5 17,5 5 3 8 4 WNW 1023,7 20 60 0,0
11.07.2020 07:00:00 11,5 9,1 6,6 20,6 17,5 7 4 13 7 NW 1023,3 20 36 0,0
11.07.2020 06:00:00 9,8 7,4 6,6 20,7 17,5 9 5 13 7 NW 1023,0 20 0 0,0
11.07.2020 05:00:00 12,0 8,5 9,2 20,8 17,5 8 5 15 8 NW 1022,3 20 0 0,0
11.07.2020 04:00:00 13,2 9,3 8,2 20,9 17,5 12 6 16 8 WNW 1022,1 20 0 0,0
11.07.2020 03:00:00 12,8 9,2 9,1 20,9 17,4 5 3 16 8 NNW 1021,9 20 0 0,0
11.07.2020 02:00:00 14,8 10,0 12,5 21,0 17,5 13 7 23 13 NNW 1021,5 20 0 0,0
11.07.2020 01:00:00 15,6 11,6 12,7 21,1 17,5 11 6 14 8 WNW 1021,1 20 0 0,0
11.07.2020 00:00:00 17,2 12,1 14,9 21,2 17,5 3 2 8 4 NW 1020,7 20 0 0,0
10.07.2020 23:00:00 17,2 12,7 15,7 21,2 17,4 4 2 26 14 WNW 1020,1 20 0 0,0
10.07.2020 22:00:00 18,1 12,3 16,5 21,2 17,4 6 3 21 12 NNW 1019,5 20 0 0,0
10.07.2020 21:00:00 19,1 12,6 17,9 21,2 17,4 13 7 24 13 NNW 1018,9 20 0 0,0
10.07.2020 20:00:00 19,8 13,7 19,2 21,1 17,4 13 7 33 18 N 1018,1 20 0 0,0
10.07.2020 19:00:00 22,4 12,3 22,2 21,1 17,4 16 9 27 14 WNW 1017,3 20 0 0,0
10.07.2020 18:00:00 22,9 12,2 23,4 21,0 17,4 17 9 26 14 WNW 1017,2 20 0 0,0
10.07.2020 17:00:00 22,6 13,1 23,3 21,0 17,4 15 8 29 16 WSW 1017,3 20 0 0,0
10.07.2020 16:00:00 23,0 12,9 24,1 20,9 17,4 19 10 31 17 W 1017,6 20 6 0,0
10.07.2020 15:00:00 22,3 13,1 24,3 20,9 17,4 19 10 39 21 W 1017,7 20 19 0,0
10.07.2020 14:00:00 21,6 15,0 21,7 20,9 17,4 13 7 36 19 NW 1017,9 20 12 0,0
10.07.2020 13:00:00 22,5 14,9 23,1 20,9 17,4 17 9 29 16 W 1017,6 20 16 0,0
10.07.2020 12:00:00 21,3 14,7 19,5 21,0 17,4 16 9 34 18 WSW 1017,5 20 16 0,0
10.07.2020 11:00:00 19,7 14,5 19,9 21,0 17,4 18 10 30 16 W 1017,5 20 0 0,0
10.07.2020 10:00:00 19,4 14,9 19,5 21,1 17,4 13 7 25 14 W 1017,3 20 0 0,0
10.07.2020 09:00:00 19,0 14,3 18,6 21,1 17,4 18 10 25 14 W 1016,8 20 23 0,0
10.07.2020 08:00:00 18,0 14,1 17,1 21,2 17,4 14 8 27 15 W 1016,8 20 0 0,0
10.07.2020 07:00:00 17,5 13,0 15,9 21,3 17,4 18 10 29 16 W 1016,3 20 27 0,0
10.07.2020 06:00:00 17,6 12,7 15,6 21,3 17,4 13 7 22 12 WSW 1015,5 20 0 0,0
10.07.2020 05:00:00 18,2 12,6 16,2 21,4 17,4 8 4 16 9 WSW 1015,2 20 0 0,0
10.07.2020 04:00:00 19,7 12,9 17,9 21,4 17,4 10 6 18 10 WSW 1015,3 20 0 0,0
10.07.2020 03:00:00 20,7 13,4 18,8 21,5 17,4 11 6 19 10 SW 1015,0 20 0 0,0
10.07.2020 02:00:00 21,9 13,5 19,8 21,5 17,4 12 7 19 10 WSW 1014,8 20 0 0,0
10.07.2020 01:00:00 22,8 13,3 19,3 21,5 17,4 10 5 17 9 WSW 1014,7 20 0 0,0
10.07.2020 00:00:00 23,3 12,6 19,2 21,5 17,4 7 4 13 7 WSW 1014,3 20 0 0,0
09.07.2020 23:00:00 24,4 12,4 19,9 21,5 17,4 8 5 13 7 SW 1014,1 20 0 0,0
09.07.2020 22:00:00 24,9 12,1 19,9 21,4 17,4 6 3 16 8 SW 1013,3 20 21 0,0
09.07.2020 21:00:00 28,7 12,2 27,0 21,3 17,4 11 6 23 13 WSW 1013,1 20 60 0,0
09.07.2020 20:00:00 31,0 10,9 31,4 21,1 17,4 13 7 31 17 WSW 1013,0 20 60 0,0
09.07.2020 19:00:00 31,8 10,5 33,6 20,9 17,4 16 9 27 15 WSW 1012,9 20 60 0,0
09.07.2020 18:00:00 32,3 11,5 35,1 20,7 17,3 16 8 30 16 WSW 1013,5 20 60 0,0
09.07.2020 17:00:00 32,1 10,7 36,1 20,6 17,4 13 7 30 16 WSW 1014,0 20 60 0,0
09.07.2020 16:00:00 31,9 14,1 37,3 20,4 17,4 10 6 24 13 SW 1014,4 20 60 0,0
09.07.2020 15:00:00 30,9 13,7 37,9 20,2 17,4 11 6 23 12 SSE 1014,9 19 60 0,0
09.07.2020 14:00:00 30,1 14,6 37,5 20,1 17,4 9 5 17 9 SSE 1015,6 17 60 0,0
09.07.2020 13:00:00 29,7 13,0 36,0 20,0 17,3 4 2 14 8 ENE 1016,1 18 60 0,0
09.07.2020 12:00:00 28,2 14,4 35,9 20,0 17,4 3 2 11 6 NW 1016,4 20 60 0,0
09.07.2020 11:00:00 26,5 13,6 33,8 20,1 17,4 4 2 11 6 SSE 1016,8 20 60 0,0
09.07.2020 10:00:00 24,1 14,5 29,2 20,1 17,4 3 1 9 5 SE 1017,2 20 60 0,0
09.07.2020 09:00:00 21,5 14,2 23,6 20,2 17,4 0 0 6 4 N 1017,4 20 60 0,0
09.07.2020 08:00:00 16,4 14,1 12,5 20,2 17,4 0 0 6 4 N 1018,0 20 60 0,0
09.07.2020 07:00:00 11,8 11,2 7,7 20,4 17,4 0 0 3 2 N 1018,1 20 14 0,0
09.07.2020 06:00:00 11,4 10,9 7,5 20,5 17,4 0 0 3 1 N 1017,8 20 0 0,0
09.07.2020 05:00:00 11,5 10,7 7,9 20,6 17,4 0 0 2 1 N 1017,9 20 0 0,0
09.07.2020 04:00:00 11,8 10,5 8,5 20,7 17,4 0 0 2 1 N 1018,2 19 0 0,0
09.07.2020 03:00:00 13,0 11,9 8,7 20,7 17,4 0 0 3 1 N 1018,3 20 0 0,0
09.07.2020 02:00:00 13,5 11,4 9,6 20,8 17,4 0 0 2 1 N 1018,4 20 0 0,0
09.07.2020 01:00:00 14,6 11,7 10,5 20,8 17,4 0 0 0 0 N 1018,3 20 0 0,0
09.07.2020 00:00:00 16,1 12,5 11,6 20,8 17,3 0 0 2 1 N 1018,2 20 0 0,0
08.07.2020 23:00:00 17,9 13,6 12,9 20,8 17,4 2 1 19 11 E 1017,8 20 0 0,0
08.07.2020 22:00:00 21,2 13,6 16,8 20,7 17,4 0 0 10 6 N 1017,1 20 22 0,0
08.07.2020 21:00:00 26,6 12,6 24,4 20,6 17,3 6 4 13 7 WNW 1016,7 20 33 0,0
08.07.2020 20:00:00 28,3 10,9 30,3 20,4 17,4 4 2 15 8 NW 1016,5 20 60 0,0
08.07.2020 19:00:00 28,4 10,6 30,8 20,2 17,3 11 6 23 12 WNW 1016,8 20 60 0,0
08.07.2020 18:00:00 28,7 9,9 28,5 20,0 17,2 10 5 21 11 W 1017,2 20 18 0,0
08.07.2020 17:00:00 29,2 10,8 34,5 19,9 17,3 5 3 22 12 NW 1017,4 20 60 0,0
08.07.2020 16:00:00 28,4 9,6 34,6 19,8 17,4 11 6 23 13 WNW 1017,9 20 60 0,0
08.07.2020 15:00:00 27,9 10,1 33,8 19,6 17,3 8 4 23 13 NW 1018,1 20 60 0,0
08.07.2020 14:00:00 27,0 9,4 33,4 19,5 17,3 12 6 21 12 WSW 1018,4 18 60 0,0
08.07.2020 13:00:00 25,5 9,7 31,6 19,5 17,3 10 5 18 10 WSW 1019,0 20 60 0,0
08.07.2020 12:00:00 24,6 8,1 31,0 19,5 17,3 9 5 21 11 WNW 1019,2 20 60 0,0
08.07.2020 11:00:00 23,2 8,8 28,9 19,5 17,3 5 3 13 7 WSW 1019,2 20 60 0,0

tt = temperature
td = dewpoint
tt 5cm = temperature 5cm
tt -20cm = temperature -20cm
tt -100cm = temperature -100cm
ff = wind speed
fx = gusts
dd = wind direction
ppp = reduced air pressure
vv = visibility
sd = sunshine duration
rr = precipitation

Next stations